When you browse on this site, cookies collect data to enhance your experience and personalize the content and advertising you see.
Visit our Privacy Policy to learn more. By continuing to use the site, you agree to this use of cookies and data.
  • In Switzerland
  • List of Countries
  • For 7 days
  • Water Temperature
  • Weather Map
  • Weather Widgets
  • user-avatar
    Login

    Hourly Weather Waterloo

    Today, 6 December, Friday

    Time Temperature Precipitation Wind Pressure Humidity
    00:00 -2°C° 0 mm 7 mps 739 mmHg 85%
    01:00 -2°C° 0 mm 7 mps 740 mmHg 82%
    02:00 -3°C° 0 mm 7 mps 741 mmHg 79%
    03:00 -3°C° 0 mm 7 mps 741 mmHg 75%
    04:00 -3°C° 0 mm 6 mps 742 mmHg 76%
    05:00 -4°C° 0 mm 6 mps 743 mmHg 76%
    06:00 -4°C° 0 mm 6 mps 744 mmHg 77%
    07:00 -5°C° 0 mm 5 mps 744 mmHg 77%
    08:00 -5°C° 0 mm 5 mps 744 mmHg 77%
    09:00 -4°C° 0 mm 4 mps 745 mmHg 77%
    10:00 -3°C° 0 mm 4 mps 745 mmHg 69%
    11:00 -2°C° 0 mm 3 mps 746 mmHg 61%
    12:00 -1°C° 0 mm 3 mps 746 mmHg 53%
    13:00 -1°C° 0 mm 3 mps 746 mmHg 51%
    14:00 -1°C° 0 mm 2 mps 746 mmHg 50%
    15:00 -1°C° 0 mm 2 mps 746 mmHg 48%
    16:00 -2°C° 0 mm 2 mps 746 mmHg 54%
    17:00 -3°C° 0 mm 2 mps 746 mmHg 59%
    18:00 -2°C° 0 mm 1 mps 746 mmHg 64%
    19:00 -2°C° 0 mm 1 mps 746 mmHg 64%
    20:00 -2°C° 0 mm 1 mps 745 mmHg 63%
    21:00 -4°C° 0 mm 2 mps 745 mmHg 63%
    22:00 -3°C° 0 mm 2 mps 745 mmHg 63%
    23:00 -4°C° 0 mm 3 mps 744 mmHg 64%

    Tomorrow, 7 December, Saturday

    Time Temperature Precipitation Wind Pressure Humidity
    00:00 -4°C° 0 mm 3 mps 744 mmHg 64%
    01:00 -4°C° 0 mm 3 mps 744 mmHg 66%
    02:00 -4°C° 0 mm 3 mps 743 mmHg 68%
    03:00 -4°C° 0 mm 4 mps 743 mmHg 70%
    04:00 -4°C° 0 mm 4 mps 743 mmHg 71%
    05:00 -4°C° 0 mm 4 mps 743 mmHg 71%
    06:00 -4°C° 0 mm 4 mps 742 mmHg 71%
    07:00 -4°C° 0 mm 5 mps 742 mmHg 69%
    08:00 -4°C° 0 mm 5 mps 742 mmHg 67%
    09:00 -2°C° 0 mm 5 mps 741 mmHg 65%
    10:00 -1°C° 0 mm 5 mps 741 mmHg 62%
    11:00 -1°C° 0 mm 6 mps 741 mmHg 60%
    12:00 +2°C° 0 mm 6 mps 740 mmHg 57%
    13:00 +2°C° 0 mm 5 mps 740 mmHg 58%
    14:00 +2°C° 0 mm 5 mps 739 mmHg 59%
    15:00 +3°C° 0 mm 5 mps 738 mmHg 61%
    16:00 +2°C° 0 mm 5 mps 737 mmHg 64%
    17:00 +1°C° 0 mm 6 mps 737 mmHg 67%
    18:00 -1°C° 0 mm 6 mps 737 mmHg 70%
    19:00 -1°C° 0 mm 6 mps 736 mmHg 71%
    20:00 -1°C° 0 mm 7 mps 736 mmHg 72%
    21:00 -1°C° 0 mm 7 mps 735 mmHg 74%
    22:00 -1°C° 0 mm 7 mps 734 mmHg 75%
    23:00 0°C° 0 mm 7 mps 734 mmHg 76%

    Day after tomorrow, 8 December, Sunday

    Time Temperature Precipitation Wind Pressure Humidity
    00:00 0°C° 0 mm 7 mps 733 mmHg 78%
    01:00 0°C° 0 mm 7 mps 733 mmHg 79%
    02:00 0°C° 0 mm 7 mps 732 mmHg 81%
    03:00 0°C° 0 mm 7 mps 732 mmHg 83%
    04:00 +1°C° 0 mm 6 mps 731 mmHg 85%
    05:00 +1°C° 0 mm 6 mps 731 mmHg 87%
    06:00 +1°C° 0 mm 5 mps 731 mmHg 89%
    07:00 +1°C° 0 mm 5 mps 731 mmHg 89%
    08:00 +1°C° 0 mm 5 mps 732 mmHg 89%
    09:00 +3°C° 0 mm 4 mps 732 mmHg 89%
    10:00 +4°C° 0 mm 4 mps 732 mmHg 86%
    11:00 +5°C° 0 mm 4 mps 732 mmHg 82%
    12:00 +6°C° 0 mm 4 mps 732 mmHg 79%
    13:00 +7°C° 0 mm 3 mps 732 mmHg 79%
    14:00 +7°C° 0 mm 2 mps 731 mmHg 78%
    15:00 +7°C° 0 mm 2 mps 731 mmHg 78%
    16:00 +6°C° 0 mm 2 mps 731 mmHg 80%
    17:00 +6°C° 0 mm 2 mps 731 mmHg 82%
    18:00 +5°C° 0 mm 2 mps 731 mmHg 84%
    19:00 +4°C° 0 mm 2 mps 731 mmHg 84%
    20:00 +3°C° 0 mm 3 mps 731 mmHg 85%
    21:00 +2°C° 0 mm 3 mps 731 mmHg 85%
    22:00 +2°C° 0 mm 3 mps 730 mmHg 86%
    23:00 +2°C° 0 mm 3 mps 730 mmHg 86%

    9 December, Monday

    Time Temperature Precipitation Wind Pressure Humidity
    00:00 +2°C° 0 mm 3 mps 730 mmHg 86%
    01:00 +1°C° 0 mm 3 mps 729 mmHg 87%
    02:00 +1°C° 0 mm 3 mps 729 mmHg 87%
    03:00 +1°C° 0 mm 3 mps 729 mmHg 87%
    04:00 0°C° 0.1 mm 4 mps 728 mmHg 88%
    05:00 0°C° 0.1 mm 4 mps 728 mmHg 88%
    06:00 -1°C° 0.1 mm 4 mps 728 mmHg 89%
    07:00 -1°C° 0.2 mm 5 mps 729 mmHg 91%
    08:00 -2°C° 0.2 mm 5 mps 729 mmHg 92%
    09:00 -3°C° 0.2 mm 6 mps 729 mmHg 94%
    10:00 -4°C° 0.6 mm 7 mps 730 mmHg 91%
    11:00 -6°C° 0.6 mm 7 mps 730 mmHg 88%
    12:00 -7°C° 0.6 mm 8 mps 730 mmHg 85%
    13:00 -8°C° 0.1 mm 8 mps 730 mmHg 82%
    14:00 -8°C° 0.1 mm 8 mps 730 mmHg 79%
    15:00 -10°C° 0.1 mm 8 mps 731 mmHg 76%
    16:00 -11°C° 0 mm 8 mps 731 mmHg 78%
    17:00 -12°C° 0 mm 7 mps 732 mmHg 79%
    18:00 -12°C° 0 mm 7 mps 733 mmHg 80%
    19:00 -13°C° 0 mm 7 mps 733 mmHg 80%
    20:00 -14°C° 0 mm 6 mps 734 mmHg 80%
    21:00 -14°C° 0 mm 6 mps 734 mmHg 79%
    22:00 -13°C° 0 mm 5 mps 735 mmHg 79%
    23:00 -14°C° 0 mm 5 mps 735 mmHg 78%

    10 December, Tuesday

    Time Temperature Precipitation Wind Pressure Humidity
    00:00 -14°C° 0 mm 5 mps 736 mmHg 77%
    01:00 -14°C° 0 mm 4 mps 736 mmHg 75%
    02:00 -15°C° 0 mm 4 mps 736 mmHg 73%
    03:00 -14°C° 0 mm 3 mps 736 mmHg 71%
    04:00 -14°C° 0 mm 3 mps 736 mmHg 66%
    05:00 -15°C° 0 mm 4 mps 736 mmHg 61%
    06:00 -15°C° 0 mm 4 mps 737 mmHg 56%
    07:00 -15°C° 0 mm 4 mps 737 mmHg 62%
    08:00 -14°C° 0 mm 5 mps 738 mmHg 68%
    09:00 -14°C° 0 mm 5 mps 738 mmHg 74%
    10:00 -16°C° 0 mm 6 mps 739 mmHg 70%
    11:00 -17°C° 0 mm 7 mps 739 mmHg 66%
    12:00 -17°C° 0 mm 8 mps 739 mmHg 63%
    13:00 -18°C° 0 mm 8 mps 740 mmHg 63%
    14:00 -19°C° 0 mm 8 mps 740 mmHg 63%
    15:00 -21°C° 0 mm 8 mps 741 mmHg 63%
    16:00 -22°C° 0 mm 8 mps 741 mmHg 64%
    17:00 -21°C° 0 mm 7 mps 742 mmHg 66%
    18:00 -23°C° 0 mm 7 mps 743 mmHg 67%
    19:00 -24°C° 0 mm 7 mps 743 mmHg 66%
    20:00 -24°C° 0 mm 7 mps 744 mmHg 66%
    21:00 -24°C° 0 mm 6 mps 744 mmHg 66%
    22:00 -24°C° 0 mm 6 mps 744 mmHg 65%
    23:00 -26°C° 0 mm 6 mps 744 mmHg 65%

    11 December, Wednesday

    Time Temperature Precipitation Wind Pressure Humidity
    00:00 -25°C° 0 mm 5 mps 744 mmHg 65%
    01:00 -25°C° 0 mm 5 mps 745 mmHg 65%
    02:00 -24°C° 0 mm 4 mps 745 mmHg 64%
    03:00 -25°C° 0 mm 4 mps 745 mmHg 63%
    04:00 -24°C° 0 mm 3 mps 745 mmHg 64%
    05:00 -24°C° 0 mm 3 mps 745 mmHg 64%
    06:00 -23°C° 0 mm 2 mps 745 mmHg 64%
    07:00 -21°C° 0 mm 2 mps 746 mmHg 62%
    08:00 -19°C° 0 mm 1 mps 746 mmHg 60%
    09:00 -19°C° 0 mm 1 mps 746 mmHg 57%
    10:00 -18°C° 0 mm 1 mps 746 mmHg 53%
    11:00 -16°C° 0 mm 1 mps 746 mmHg 48%
    12:00 -15°C° 0 mm 1 mps 746 mmHg 44%
    13:00 -15°C° 0 mm 1 mps 746 mmHg 42%
    14:00 -14°C° 0 mm 1 mps 746 mmHg 41%
    15:00 -13°C° 0 mm 1 mps 746 mmHg 39%
    16:00 -13°C° 0 mm 1 mps 746 mmHg 42%
    17:00 -13°C° 0 mm 1 mps 747 mmHg 44%
    18:00 -13°C° 0 mm 0 mps 747 mmHg 47%
    19:00 -14°C° 0 mm 1 mps 748 mmHg 50%
    20:00 -14°C° 0 mm 1 mps 748 mmHg 53%
    21:00 -14°C° 0 mm 1 mps 749 mmHg 56%
    22:00 -14°C° 0 mm 1 mps 749 mmHg 58%
    23:00 -15°C° 0 mm 1 mps 749 mmHg 60%
    Show more